Location: Balaclava NSW 2575, Australia
(34.4510°S, 150.4953°E)
Time: 17:02:42
(UTC+10:00)

XW-2C - Visible Passes

Search period start: 29 July 2021 00:00
Search period end: 08 August 2021 00:00
Orbit: 504 x 526 km, 97.5° (Epoch: 28 July)

Date Brightness Start Highest point End Pass type
(mag) Time Alt. Az. Time Alt. Az. Time Alt. Az.
29 Jul ? 05:29:33 10° N 05:33:19 53° W 05:35:54 19° SSW visible
29 Jul ? 18:39:04 10° SSW 18:42:07 23° WSW 18:45:07 10° NW visible
30 Jul ? 05:14:33 10° NNE 05:18:23 87° WNW 05:20:59 20° SSW visible
30 Jul ? 18:23:47 10° S 18:27:17 35° WSW 18:30:44 10° NW visible
31 Jul ? 04:59:43 10° NNE 05:03:29 57° ESE 05:06:05 19° S visible
31 Jul ? 18:08:40 10° S 18:12:25 56° WSW 18:16:06 10° NNW visible
01 Aug ? 04:45:05 10° NE 04:48:37 36° ESE 04:51:11 17° SSE visible
01 Aug ? 06:21:10 10° WNW 06:22:46 12° W 06:24:23 10° WSW visible
01 Aug ? 17:53:41 10° SSE 17:57:31 87° E 18:01:16 10° NNW visible
02 Aug ? 04:30:42 10° NE 04:33:47 23° ESE 04:36:18 13° SSE visible
02 Aug ? 06:04:58 10° NW 06:07:44 19° W 06:10:32 10° SW visible
02 Aug ? 17:38:51 10° SSE 17:42:35 53° E 17:46:14 10° N visible
03 Aug ? 04:16:37 10° ENE 04:18:58 16° ESE 04:21:21 10° SSE visible
03 Aug ? 05:49:21 10° NNW 05:52:44 29° W 05:56:09 10° SW visible
03 Aug ? 18:59:25 10° SW 19:01:18 13° WSW 19:03:10 10° W visible
04 Aug ? 04:03:37 10° ESE 04:04:12 10° ESE 04:04:46 10° ESE visible
04 Aug ? 05:34:03 10° N 05:37:45 46° W 05:41:30 10° SSW visible
04 Aug ? 18:43:40 10° SSW 18:46:30 20° WSW 18:49:18 10° WNW visible
05 Aug ? 05:18:58 10° N 05:22:48 76° WNW 05:26:42 10° SSW visible
05 Aug ? 18:28:17 10° S 18:31:40 31° WSW 18:34:58 10° NW visible
06 Aug ? 05:04:04 10° NNE 05:07:53 66° ESE 05:11:45 10° S visible
06 Aug ? 18:13:06 10° S 18:16:47 49° WSW 18:20:23 10° NNW visible
07 Aug ? 04:49:22 10° NE 04:52:59 41° ESE 04:56:39 10° S visible
07 Aug ? 17:58:04 10° S 18:01:53 81° W 18:05:36 10° NNW visible
